This is the latest recevied weather packets stored in our database for station/object VR2MW-X. If no packets are shown the sender has not sent any weather packets the latest 10 day(s).
| Time | Temp. | Humidity | Pressure | Rain* | Wind** | Luminosity | Snow |
|---|---|---|---|---|---|---|---|
| 1777539756 | 26.11° C | 55% | 1013.5 hPa | - | - | - | - |
| 1777539146 | 26.11° C | 52% | 1013.6 hPa | - | - | - | - |
| 1777538536 | 26.11° C | 51% | 1013.6 hPa | - | - | - | - |
| 1777537925 | 26.11° C | 52% | 1013.6 hPa | - | - | - | - |
| 1777537315 | 26.11° C | 52% | 1013.7 hPa | - | - | - | - |
| 1777536705 | 26.11° C | 53% | 1013.8 hPa | - | - | - | - |
| 1777536094 | 26.11° C | 53% | 1014 hPa | - | - | - | - |
| 1777535484 | 26.11° C | 52% | 1014 hPa | - | - | - | - |
| 1777534873 | 26.11° C | 51% | 1014 hPa | - | - | - | - |
| 1777534263 | 26.11° C | 51% | 1014 hPa | - | - | - | - |
| 1777533653 | 26.11° C | 50% | 1014.1 hPa | - | - | - | - |
| 1777533042 | 26.11° C | 53% | 1014.1 hPa | - | - | - | - |
| 1777532432 | 26.11° C | 52% | 1014.2 hPa | - | - | - | - |
| 1777531821 | 26.11° C | 51% | 1014.6 hPa | - | - | - | - |
| 1777531209 | 25° C | 53% | 1014.6 hPa | - | - | - | - |
| 1777530597 | 26.11° C | 50% | 1014.6 hPa | - | - | - | - |
| 1777529987 | 26.11° C | 55% | 1014.8 hPa | - | - | - | - |
| 1777528766 | 26.11° C | 55% | 1015 hPa | - | - | - | - |
| 1777528154 | 25° C | 56% | 1015 hPa | - | - | - | - |
| 1777527544 | 25° C | 52% | 1015.1 hPa | - | - | - | - |
| 1777526933 | 23.89° C | 58% | 1015.6 hPa | - | - | - | - |
| 1777526323 | 23.89° C | 58% | 1015.7 hPa | - | - | - | - |
| 1777525712 | 23.89° C | 57% | 1015.8 hPa | - | - | - | - |
| 1777525102 | 23.89° C | 56% | 1015.8 hPa | - | - | - | - |
| 1777524492 | 23.89° C | 56% | 1016.1 hPa | - | - | - | - |
* Rain since midnight (hover to see other rain measurements)
** Current wind speed in m/s (hover to see current wind gust speed)